Espaço - Ciências - Fenômenos Naturais
Meteógrafos Informações Meteorológicas em tempo real

Aeroporto de Congonhas

Histórico do Tempo
Temperatura atual: 19 graus 66 F    Umidade relativa: 93 %
Velocidade do vento: 03 nós 5 Km/h    Direção: 170 graus S
Ajuste do altímetro ..: 1021 HPA
Visibilidade: Ótima    Tempo presente: Não Disponível

Observação
Poucas nuvens a 400 Pés.

Data Hora BRTTempo°CUmidadePressãoVentoVisib.
24/04 - 03:56   Parcialmente Nublado 20° 88% 1021 Sul-sudeste/10 km/h OK
24/04 - 02:56   Não Disponível 20° 88% 1021 Sul-sudeste/9 km/h OK
24/04 - 01:56   Não Disponível 21° 83% 1022 Sudeste/10 km/h OK
24/04 - 00:56   Parcialmente Nublado 21° 83% 1022 Este-sudeste/9 km/h 9999
23/04 - 23:56   Poucas nuvens esparsas 21° 88% 1022 Este-sudeste/5 km/h 9999
23/04 - 22:56   Parcialmente Nublado 20° 93% 1022 Sudeste/12 km/h OK
23/04 - 21:56   Parcialmente Nublado 20° 93% 1022 Sudeste/12 km/h OK
23/04 - 20:56   Parcialmente Nublado 21° 88% 1022 Sul-sudeste/18 km/h OK
23/04 - 19:56   Parcialmente Nublado 21° 88% 1022 Sul-sudeste/18 km/h OK
23/04 - 18:56   Parcialmente Nublado 22° 83% 1021 Sul/16 km/h OK
23/04 - 17:56   Parcialmente Nublado 22° 83% 1021 Sul-sudeste/19 km/h OK
23/04 - 16:56   Parcialmente Nublado 22° 83% 1021 Sul-sudeste/19 km/h OK
23/04 - 15:56   Parcialmente Nublado 24° 73% 1020 Sul-sudeste/21 km/h OK
23/04 - 14:56   Parcialmente Nublado 24° 73% 1020 Sul-sudeste/21 km/h OK
23/04 - 13:56   Poucas nuvens esparsas 26° 65% 1021 Sul-sudeste/10 km/h 9999
23/04 - 12:56   Parcialmente Nublado 25° 69% 1021 Sul-sudeste/14 km/h OK
23/04 - 11:56   Parcialmente Nublado 25° 69% 1022 Este-sudeste/10 km/h 9999
23/04 - 10:56   Parcialmente Nublado 23° 73% 1023 Este-sudeste/10 km/h 9999
23/04 - 09:56   Parcialmente Nublado 23° 73% 1023 Este-sudeste/10 km/h 9999
23/04 - 08:56   Parcialmente Nublado 21° 88% 1022 Sul-sudeste/10 km/h 8000
23/04 - 07:56   Parcialmente Nublado 21° 88% 1021 Sudeste/7 km/h 8000
23/04 - 06:56   Poucas nuvens esparsas 20° 88% 1020 Este-sudeste/7 km/h OK
23/04 - 05:56   Parcialmente Nublado 20° 88% 1019 Sudeste/10 km/h OK
23/04 - 04:56   Parcialmente Nublado 20° 88% 1019 Este-sudeste/7 km/h 9999


Apolo11.com - Todos os direitos reservados - 2000 - 2019
Política de Privacidade   |     Termo de Uso e Licenciamento   |  -   Entre em Contato

"Cada vez que eu indico alguém para um cargo, crio 10 inimigos e um ingrato" - Molière